Regional Weather Roundup
Issued by NWS

Home | Current Version | Previous Version | Text Only | Print | Product List | Glossary Off
Versions: 1 2 3 4 5 6 7 8 9 10 11 12 13 14 15 16 17 18 19 20 21 22 23 24 25 26 27 28 29 30 31 32 33 34 35 36 37 38 39 40 41 42 43 44 45 46 47 48 49 50

000
ASUS43 KDMX 242301
RWRIA

WEATHER ROUNDUP FOR IOWA
NATIONAL WEATHER SERVICE DES MOINES IA
600 PM CDT MON APR 24 2017

NOTE: "FAIR" INDICATES FEW OR NO CLOUDS BELOW 12,000 FEET WITH NO
SIGNIFICANT WEATHER AND/OR OBSTRUCTIONS TO VISIBILITY.

* - THESE STATIONS ARE NOT NWS STATIONS...THUS NOT UNDER NWS
QUALITY CONTROL.  THEY ALSO DO NOT REPORT WEATHER SUCH
AS PRECIPITATION OR FOG.

IAZ001>003-012>014-020>022-031>034-043>046-250000-
   NORTHWEST IOWA

CITY           SKY/WX    TMP DP  RH WIND       PRES   REMARKS
CARROLL *      CLOUDY    73  34  23 S24G36    29.54F
CHEROKEE *     CLOUDY    67  40  36 S10G23    29.52F
DENISON *      SUNNY     73  39  29 S21G31    29.54S
LE MARS *      CLOUDY    70  43  37 SW13G20   29.50S
ORANGE CITY *  CLOUDY    70  43  37 SW16      29.51F
SHELDON *      CLOUDY    68  37  32 S16       29.50F
SIOUX CITY     CLOUDY    73  42  32 S17       29.49F
SPENCER        CLOUDY    68  37  32 S14       29.53F
STORM LAKE *   CLOUDY    70  36  28 S23G30    29.53F
$$

IAZ055>058-069>071-079>083-090>094-250000-
   SOUTHWEST IOWA

CITY           SKY/WX    TMP DP  RH WIND       PRES   REMARKS
ATLANTIC *     CLOUDY    73  37  27 S25G32    29.55S
AUDUBON *      CLOUDY    73  28  19 S20G26    29.57S
CLARINDA *     MOSUNNY   73  37  27 S23G33    29.58F
COUNCIL BLFS * SUNNY     72  41  33 S18       29.53S
CRESTON *      PTSUNNY   72  32  23 S24G32    29.59S
HARLAN  *      SUNNY     73  37  27 S22G35    29.57S
LAMONI         CLOUDY    73  29  19 S15G28    29.59F
RED OAK *      MOSUNNY   73  39  29 S22G30    29.56R
SHENANDOAH *   MOSUNNY   73  39  29 S24G31    29.55S
$$

IAZ047>049-059>061-072>074-084-250000-
   CENTRAL IOWA

CITY           SKY/WX    TMP DP  RH WIND       PRES   REMARKS
AMES           CLOUDY    72  30  21 S21G31    29.59F
ANKENY *       CLOUDY    73  30  20 S17G26    29.60S
BOONE *        CLOUDY    73  27  17 S24G32    29.57F
CHARITON *     CLOUDY    73  28  19 S23G30    29.61F
DES MOINES     CLOUDY    74  29  19 S17G23    29.60S
GRINNELL*      CLOUDY    72  26  17 S16G25    29.64F
KNOXVILLE *    CLOUDY    73  27  17 S16G22    29.60F
MARSHALLTOWN   CLOUDY    71  27  19 S18       29.61F
NEWTON *       MOSUNNY   72  27  18 S21       29.61S
PELLA *        CLOUDY    74  22  14 S15G22    29.64S
PERRY *          N/A     73  22  14 S31       29.57S HAZE
$$

IAZ004>006-015-016-023>025-035-036-250000-
   NORTH CENTRAL IOWA

CITY           SKY/WX    TMP DP  RH WIND       PRES   REMARKS
ALGONA *       CLOUDY    70  32  24 S16       29.56F
CLARION *      PTSUNNY   73  28  19 S28G36    29.58F
ESTHERVILLE    CLOUDY    67  33  28 S14       29.54F
FORT DODGE *   MOSUNNY   72  30  21 S18G36    29.57F
MASON CITY     CLOUDY    66  30  26 S14       29.60F
FOREST CITY *    N/A     63  36  36 S13       29.59F
WEBSTER CITY * CLOUDY    73  27  17 S25       29.56S
IOWA FALLS *     N/A     73  30  20 S20G28    29.62S
$$

IAZ007>011-017>019-026>030-037>042-050>054-066-250000-
   NORTHEAST IOWA

CITY           SKY/WX    TMP DP  RH WIND       PRES   REMARKS
CEDAR RAPIDS   SUNNY     73  28  18 SE16G25   29.66F
CHARLES CITY * CLOUDY    70  25  18 SE14G20   29.62F
DECORAH *      CLOUDY    70  27  19 S14G24    29.64F
DUBUQUE        SUNNY     72  23  16 S24       29.70F
MONTICELLO *   SUNNY     75  23  14 SE21G29   29.68S
OELWEIN *      CLOUDY    72  27  18 S22G28    29.65F
WATERLOO       CLOUDY    72  23  16 S20G26    29.62F
$$

IAZ064-065-067-068-078-250000-
   EAST CENTRAL IOWA

CITY           SKY/WX    TMP DP  RH WIND       PRES   REMARKS
DAVENPORT      SUNNY     76  23  14 SE18G26   29.70F
IOWA CITY      SUNNY     75  28  17 SE17G29   29.68F
MUSCATINE *    SUNNY     77  25  14 S18G28    29.67F
QUAD CITIES    SUNNY     75  27  17 SE21G32   29.68F
$$

IAZ062-063-075>077-085>089-095>099-250000-
   SOUTHEAST IOWA

CITY           SKY/WX    TMP DP  RH WIND       PRES   REMARKS
BURLINGTON     SUNNY     74  28  18 SE14G24   29.68F
FAIRFIELD *    SUNNY     72  27  18 SE15G23   29.66S
FORT MADISON * SUNNY     79  30  17 SE8G18    29.69F
KEOKUK *       SUNNY     75  27  16 S14G22    29.67F
OSKALOOSA *      N/A     74  24  15 S21G29    29.64S
OTTUMWA        MOSUNNY   73  26  17 SE15G26   29.63F
WASHINGTON *   SUNNY     75  25  15 S21       29.67F
$$

ABBREVIATIONS USED IN REMARKS
   TC - TEMPERATURES IN CELSIUS
  WCI - WIND CHILL INDEX
   HX - HEAT INDEX
  VSB - VISIBILITY
$$




USA.gov is the U.S. government's official web portal to all federal, state and local government web resources and services.